Hourly Data Report for February 26, 2006

TORONTO CITY
ONTARIO

43°40'00.000" N
79°24'00.000" W
112.50 m
6158355
71508
XTO

Download Data

Hourly Data (February 2006)
Hourly Data Report for February 26, 2006
TIME
LST
Temp Definition
°C
Dew Point Definition
°C
Rel Hum Definition
%
Precip. Amount Definition
mm

Wind Dir Definition
10's deg

Wind Spd Definition
km/h
Visibility Definition
km
Stn Press Definition
kPa
Hmdx Definition


Wind Chill Definition


Weather Definition


00:00 -5.9 -7.2 91   LegendMM LegendMM   101.11     LegendNANA
01:00 -7.7 -10.6 80   LegendMM LegendMM   101.18     LegendNANA
02:00 -8.4 -12.6 72   LegendMM LegendMM   101.23     LegendNANA
03:00 -9.5 -14.1 69   LegendMM LegendMM   101.26     LegendNANA
04:00 -10.6 -15.1 69   LegendMM LegendMM   101.31     LegendNANA
05:00 -11.3 -16.1 68   LegendMM LegendMM   101.33     LegendNANA
06:00 -11.7 -16.8 66   LegendMM LegendMM   101.37     LegendNANA
07:00 -12.2 -17.2 66   LegendMM LegendMM   101.42     LegendNANA
08:00 -12.2 -17.3 66   LegendMM LegendMM   101.49     LegendNANA
09:00 -11.5 -17.0 64   LegendMM LegendMM   101.54     LegendNANA
10:00 -10.4 -16.8 59   LegendMM LegendMM   101.53     LegendNANA
11:00 -8.3 -18.4 44   LegendMM LegendMM   101.49     LegendNANA
12:00 -8.4 -17.9 46   LegendMM LegendMM   101.42     LegendNANA
13:00 -5.7 -16.0 44   LegendMM LegendMM   101.30     LegendNANA
14:00 -6.9 -16.5 46   LegendMM LegendMM   101.20     LegendNANA
15:00 -7.0 -13.4 60   LegendMM LegendMM   101.13     LegendNANA
16:00 -6.9 -13.9 57   LegendMM LegendMM   101.10     LegendNANA
17:00 -7.2 -14.3 57   LegendMM LegendMM   101.03     LegendNANA
18:00 -7.7 -13.9 61   LegendMM LegendMM   100.98     LegendNANA
19:00 -7.9 -14.0 62   LegendMM LegendMM   100.99     LegendNANA
20:00 -7.9 -14.9 57   LegendMM LegendMM   100.96     LegendNANA
21:00 -8.4 -14.6 61   LegendMM LegendMM   100.90     LegendNANA
22:00 -8.7 -14.0 65   LegendMM LegendMM   100.85     LegendNANA
23:00 -9.2 -14.3 66   LegendMM LegendMM   100.80     LegendNANA

Notes on Data Quality.

Legend

  • E = Estimated
  • M = Missing
  • NA = Not Available*
  • [empty] = Indicates an unobserved value
Date modified: